Location: *
(18.5200°S, 46.4500°E)
Time: 00:25:07
(UTC+00:00)

Cosmos 1356 - Pass Details

Date: 19 July 2019
Orbit: 447 x 450 km, 81.1° (Epoch: 20 August)

Event Time Altitude Azimuth Distance (km) Brightness Sun altitude
Rises 16:00:41 0° 358° (N) 2,438 7.4 -20.0°
Reaches altitude 10° 16:02:44 10° 0° (N) 1,574 6.3 -20.5°
Enters shadow 16:05:16 46° 16° (NNE) 618 4.0 -21.1°
